Weather History for Ogallala, NE

Change the Weather History Date:

Monday, August 5, 2013

  Actual Average Record
Temperature  
Mean Temperature 75 °F -  
Max Temperature 88 °F 87 °F 101 °F (1979)
Min Temperature 62 °F 59 °F 46 °F (2005)
Cooling Degree Days 10    
Growing Degree Days 25 (Base 50)    
Moisture  
Dew Point 65 °F    
Average Humidity 73    
Maximum Humidity 96    
Minimum Humidity 39    
Precipitation  
Precipitation 0.00 in - - ()
Sea Level Pressure  
Sea Level Pressure 29.99 in    
Wind  
Wind Speed 3 mph (ESE)    
Max Wind Speed 15 mph    
Max Gust Speed 22 mph    
Visibility 9 miles    
Events Fog    
Averages and records for this station are not official NWS values.
T = Trace of Precipitation, MM = Missing Value Source: NWS Daily Summary

Daily Weather History Graph

Daily Weather History Graph

Search for Another Location

Airport:

Trip Planner

Search our weather history database for the weather conditions in past years. The results will help you decide how hot, cold, wet, or windy it might be!

Date:

Astronomy

Aug. 05, 2013 Rise Set
Actual Time 5:46 AM MDT 7:58 PM MDT
Civil Twilight 5:16 AM MDT 8:28 PM MDT
Nautical Twilight 4:38 AM MDT 9:06 PM MDT
Astronomical Twilight 3:57 AM MDT 9:47 PM MDT
Moon 4:44 AM MDT (8/5) 6:59 PM MDT (8/5)
Length of Visible Light 15h 12m
Length of Day
14h 11m
Waning Crescent, 1% of the Moon is Illuminated
Aug 5
Waning Crescent
Aug 6
New
Aug 14
First Quarter
Aug 20
Full
Aug 28
Last Quarter

Hourly Weather History & Observations

Time (MDT) Temp. Heat Index Dew Point Humidity Pressure Visibility Wind Dir Wind Speed Gust Speed Precip Events Conditions
12:15 AM 73.9 °F - 67.3 °F 80% 30.06 in 10.0 mi East 3.5 mph - N/A   Clear
12:35 AM 72.5 °F - 67.3 °F 84% 30.04 in 10.0 mi SE 3.5 mph - N/A   Clear
12:55 AM 71.8 °F - 67.3 °F 86% 30.03 in 10.0 mi ESE 3.5 mph - N/A   Clear
1:15 AM 70.5 °F - 66.9 °F 88% 30.03 in 10.0 mi Calm Calm - N/A   Clear
1:35 AM 70.9 °F - 67.1 °F 88% 30.01 in 10.0 mi Calm Calm - N/A   Clear
1:55 AM 69.4 °F - 66.4 °F 90% 30.00 in 10.0 mi Calm Calm - N/A   Clear
2:15 AM 69.4 °F - 66.6 °F 91% 30.00 in 10.0 mi Calm Calm - N/A   Clear
2:35 AM 68.9 °F - 66.4 °F 92% 29.99 in 10.0 mi Calm Calm - N/A   Clear
2:55 AM 68.5 °F - 65.8 °F 91% 29.99 in 10.0 mi Calm Calm - N/A   Clear
3:15 AM 68.4 °F - 66.2 °F 93% 29.98 in 10.0 mi Calm Calm - N/A   Clear
3:35 AM 67.8 °F - 65.7 °F 93% 29.97 in 7.0 mi Calm Calm - N/A   Clear
3:55 AM 67.1 °F - 64.9 °F 93% 29.97 in 7.0 mi Calm Calm - N/A   Clear
4:15 AM 66.6 °F - 64.8 °F 94% 29.96 in 5.0 mi WSW 4.6 mph - N/A   Clear
4:35 AM 66.7 °F - 65.3 °F 95% 29.95 in 4.0 mi Calm Calm - N/A   Clear
4:55 AM 65.3 °F - 63.5 °F 94% 29.96 in 3.0 mi Calm Calm - N/A   Clear
5:15 AM 64.8 °F - 63.1 °F 94% 29.96 in 1.0 mi Calm Calm - N/A   Mist
5:35 AM 63.0 °F - 61.7 °F 96% 29.97 in 0.2 mi Calm Calm - N/A Fog Fog
5:55 AM 63.3 °F - 61.9 °F 95% 29.97 in 0.2 mi SW 3.5 mph - N/A Fog Fog
6:15 AM 62.8 °F - 61.3 °F 95% 29.97 in 0.2 mi WSW 3.5 mph - N/A Fog Fog
6:35 AM 63.0 °F - 61.7 °F 96% 29.97 in 0.2 mi Calm Calm - N/A Fog Fog
6:55 AM 65.1 °F - 63.9 °F 96% 30.01 in 0.2 mi NNE 10.4 mph 20.7 mph N/A Fog Fog
7:15 AM 68.0 °F - 66.4 °F 95% 30.03 in 5.0 mi NE 3.5 mph - N/A   Scattered Clouds
7:35 AM 70.2 °F - 68.9 °F 96% 30.03 in 7.0 mi Calm Calm - N/A   Clear
7:55 AM 70.3 °F - 68.0 °F 92% 30.04 in 7.0 mi Calm Calm - N/A   Scattered Clouds
8:15 AM 70.9 °F - 68.4 °F 92% 30.04 in 10.0 mi East 5.8 mph - N/A   Mostly Cloudy
8:35 AM 72.0 °F - 68.2 °F 88% 30.04 in 10.0 mi ENE 8.1 mph - N/A   Overcast
8:55 AM 72.9 °F - 67.6 °F 84% 30.04 in 10.0 mi ENE 5.8 mph - N/A   Overcast
9:15 AM 74.8 °F - 66.6 °F 75% 30.04 in 10.0 mi ENE 8.1 mph - N/A   Mostly Cloudy
9:35 AM 74.5 °F - 66.6 °F 76% 30.03 in 10.0 mi SE 4.6 mph - N/A   Scattered Clouds
9:55 AM 76.3 °F - 67.3 °F 74% 30.03 in 10.0 mi ESE 6.9 mph - N/A   Scattered Clouds
10:15 AM 77.0 °F - 67.3 °F 72% 30.03 in 10.0 mi ESE 5.8 mph - N/A   Scattered Clouds
10:35 AM 77.4 °F - 67.6 °F 72% 30.03 in 10.0 mi East 4.6 mph - N/A   Scattered Clouds
10:55 AM 78.8 °F - 67.6 °F 68% 30.02 in 10.0 mi ENE 5.8 mph - N/A   Clear
11:15 AM 79.0 °F - 67.6 °F 68% 30.03 in 10.0 mi East 3.5 mph - N/A   Clear
11:35 AM 81.3 °F 84.3 °F 68.4 °F 65% 30.02 in 10.0 mi East 4.6 mph - N/A   Scattered Clouds
11:55 AM 82.2 °F 85.1 °F 67.8 °F 62% 30.01 in 10.0 mi ESE 9.2 mph - N/A   Scattered Clouds
12:15 PM 82.6 °F 85.3 °F 67.3 °F 60% 30.01 in 10.0 mi ESE 6.9 mph - N/A   Clear
12:35 PM 82.9 °F 85.2 °F 66.4 °F 57% 30.00 in 10.0 mi East 5.8 mph - N/A   Clear
12:55 PM 83.3 °F 85.7 °F 66.6 °F 57% 30.00 in 10.0 mi East 6.9 mph - N/A   Clear
1:15 PM 83.8 °F 85.6 °F 65.3 °F 53% 30.00 in 10.0 mi Calm Calm - N/A   Clear
1:35 PM 84.0 °F 86.0 °F 65.7 °F 54% 29.99 in 10.0 mi ESE 3.5 mph - N/A   Clear
1:55 PM 84.4 °F 86.1 °F 64.8 °F 52% 29.98 in 10.0 mi SE 6.9 mph - N/A   Clear
2:15 PM 85.1 °F 86.6 °F 64.8 °F 50% 29.97 in 10.0 mi South 3.5 mph - N/A   Clear
2:35 PM 86.2 °F 88.4 °F 65.8 °F 51% 29.96 in 10.0 mi East 4.6 mph - N/A   Clear
2:55 PM 86.9 °F 88.6 °F 64.8 °F 48% 29.95 in 10.0 mi ESE 5.8 mph - N/A   Clear
3:15 PM 87.3 °F 88.3 °F 63.5 °F 45% 29.95 in 10.0 mi North 4.6 mph - N/A   Scattered Clouds
3:35 PM 88.0 °F 90.0 °F 65.3 °F 47% 29.95 in 10.0 mi SSE 8.1 mph - N/A   Clear
3:55 PM 87.8 °F 89.4 °F 64.9 °F 46% 29.95 in 10.0 mi SE 5.8 mph - N/A   Clear
4:15 PM 88.2 °F 89.3 °F 63.9 °F 44% 29.94 in 10.0 mi ESE 5.8 mph - N/A   Clear
4:35 PM 88.3 °F 89.2 °F 63.0 °F 43% 29.94 in 10.0 mi ESE 4.6 mph - N/A   Clear
4:55 PM 88.3 °F 88.1 °F 60.3 °F 39% 29.93 in 10.0 mi Calm Calm - N/A   Clear
5:15 PM 88.5 °F 88.6 °F 61.5 °F 40% 29.94 in 10.0 mi NE 4.6 mph - N/A   Clear
5:35 PM 88.2 °F 88.1 °F 61.2 °F 40% 29.93 in 10.0 mi East 5.8 mph - N/A   Clear
5:55 PM 88.5 °F 88.6 °F 61.3 °F 40% 29.93 in 10.0 mi NE 9.2 mph - N/A   Scattered Clouds
6:15 PM 88.2 °F 88.4 °F 61.5 °F 41% 29.93 in 10.0 mi East 10.4 mph - N/A   Mostly Cloudy
6:35 PM 85.1 °F 86.4 °F 63.9 °F 49% 29.93 in 10.0 mi East 9.2 mph - N/A   Scattered Clouds
6:55 PM 83.7 °F 84.5 °F 62.4 °F 49% 29.94 in 10.0 mi SE 11.5 mph 18.4 mph N/A   Scattered Clouds
7:15 PM 77.5 °F - 59.7 °F 54% 29.96 in 10.0 mi SSE 15.0 mph 21.9 mph N/A   Scattered Clouds
7:35 PM 75.0 °F - 58.1 °F 56% 29.95 in 10.0 mi SSE 6.9 mph - N/A   Clear
7:55 PM 73.6 °F - 59.9 °F 62% 29.96 in 10.0 mi East 4.6 mph - N/A   Clear
8:15 PM 72.7 °F - 61.2 °F 67% 29.94 in 10.0 mi SE 4.6 mph - N/A   Clear
8:35 PM 72.0 °F - 61.9 °F 70% 29.98 in 10.0 mi SSE 3.5 mph - N/A   Clear
8:55 PM 70.7 °F - 63.7 °F 78% 29.98 in 10.0 mi Calm Calm - N/A   Clear
9:15 PM 70.9 °F - 64.4 °F 80% 30.00 in 10.0 mi ESE 10.4 mph - N/A   Clear
9:35 PM 69.8 °F - 63.1 °F 79% 30.00 in 10.0 mi SE 4.6 mph - N/A   Clear
9:55 PM 68.9 °F - 63.1 °F 82% 30.00 in 10.0 mi ESE 3.5 mph - N/A   Clear
10:15 PM 68.2 °F - 63.0 °F 83% 29.98 in 10.0 mi Calm Calm - N/A   Clear
10:35 PM 68.2 °F - 63.3 °F 84% 29.99 in 10.0 mi Calm Calm - N/A   Clear
10:55 PM 68.0 °F - 63.7 °F 86% 29.96 in 10.0 mi Calm Calm - N/A   Clear
11:15 PM 67.3 °F - 63.5 °F 88% 29.96 in 10.0 mi West 5.8 mph - N/A   Clear
11:35 PM 66.6 °F - 63.5 °F 90% 29.95 in 10.0 mi West 4.6 mph - N/A   Clear
11:55 PM 66.6 °F - 62.8 °F 88% 29.95 in 10.0 mi West 4.6 mph - N/A   Clear